Summerville, SC

9:31 AM EDT on October 20, 2017 (GMT -0400)
Summerville

Weather History for KDYB - December, 2012

Change the Weather History Date:

Wednesday, December 5, 2012

  Actual Average (KCHS) Record (KCHS)
Temperature  
Mean Temperature 62 °F -  
Max Temperature 77 °F 62 °F 81 °F (2013)
Min Temperature 46 °F 38 °F 22 °F (1969)
Degree Days  
Heating Degree Days 4    
Growing Degree Days 12 (Base 50)    
Moisture  
Dew Point 52 °F    
Average Humidity 81    
Maximum Humidity 100    
Minimum Humidity 41    
Precipitation  
Precipitation 0.00 in - - ()
Sea Level Pressure  
Sea Level Pressure 30.17 in    
Wind  
Wind Speed 1 mph (West)    
Max Wind Speed 8 mph    
Max Gust Speed -    
Visibility 10 miles    
Events      
Averages and records for this station are not official NWS values.
T = Trace of Precipitation, MM = Missing Value Source: NWS Daily Summary

Daily Weather History Graph

Daily Weather History Graph

Search for Another Location

Airport or City:

Trip Planner

Search our weather history database for the weather conditions in past years. The results will help you decide how hot, cold, wet, or windy it might be!

Date:

Astronomy

Dec. 05, 2012 Rise Set
Actual Time 7:09 AM EST 5:13 PM EST
Civil Twilight 6:42 AM EST 5:41 PM EST
Nautical Twilight 6:12 AM EST 6:11 PM EST
Astronomical Twilight 5:42 AM EST 6:41 PM EST
Moon 11:46 PM EST (12/5) 11:46 AM EST (12/5)
Length of Visible Light 10h 58m
Length of Day
10h 04m
Waning Gibbous, 60% of the Moon is Illuminated
Dec 5
Waning Gibbous
Dec 6
Last Quarter
Dec 13
New
Dec 20
First Quarter
Dec 28
Full

Hourly Weather History & Observations

Time (EST) Temp. Dew Point Humidity Pressure Visibility Wind Dir Wind Speed Gust Speed Precip Events Conditions
12:15 AM 53.6 °F 53.6 °F 100% 30.25 in 10.0 mi Calm Calm - N/A   Clear
12:35 AM 51.8 °F 51.8 °F 100% 30.25 in 10.0 mi Calm Calm - N/A   Clear
12:55 AM 51.8 °F 51.8 °F 100% 30.24 in 10.0 mi Calm Calm - N/A   Clear
1:15 AM 50.0 °F 50.0 °F 100% 30.24 in 10.0 mi Calm Calm - N/A   Clear
1:35 AM 50.0 °F 50.0 °F 100% 30.23 in 10.0 mi Calm Calm - N/A   Clear
1:55 AM 50.0 °F 50.0 °F 100% 30.23 in 10.0 mi Calm Calm - N/A   Clear
2:15 AM 50.0 °F 50.0 °F 100% 30.22 in 10.0 mi Calm Calm - N/A   Clear
2:35 AM 50.0 °F 50.0 °F 100% 30.22 in 10.0 mi Calm Calm - N/A   Clear
2:55 AM 50.0 °F 50.0 °F 100% 30.22 in 10.0 mi Calm Calm - N/A   Clear
3:15 AM 48.2 °F 48.2 °F 100% 30.21 in 10.0 mi Calm Calm - N/A   Clear
3:35 AM 48.2 °F 48.2 °F 100% 30.21 in 10.0 mi Calm Calm - N/A   Clear
3:55 AM 48.2 °F 48.2 °F 100% 30.20 in 10.0 mi Calm Calm - N/A   Clear
4:15 AM 48.2 °F 48.2 °F 100% 30.19 in 10.0 mi Calm Calm - N/A   Clear
4:35 AM 46.4 °F 46.4 °F 100% 30.19 in 10.0 mi Calm Calm - N/A   Clear
4:55 AM 46.4 °F 46.4 °F 100% 30.18 in 10.0 mi Calm Calm - N/A   Clear
5:15 AM 46.4 °F 46.4 °F 100% 30.19 in 10.0 mi Calm Calm - N/A   Clear
5:35 AM 46.4 °F 46.4 °F 100% 30.19 in 10.0 mi Calm Calm - N/A   Scattered Clouds
5:55 AM 46.4 °F 46.4 °F 100% 30.19 in 10.0 mi Calm Calm - N/A   Clear
6:15 AM 46.4 °F 46.4 °F 100% 30.20 in 10.0 mi Calm Calm - N/A   Clear
6:35 AM 46.4 °F 46.4 °F 100% 30.20 in 7.0 mi Calm Calm - N/A   Clear
6:55 AM 46.4 °F 46.4 °F 100% 30.21 in 7.0 mi Calm Calm - N/A   Clear
7:15 AM 46.4 °F 46.4 °F 100% 30.22 in 10.0 mi Calm Calm - N/A   Clear
7:35 AM 46.4 °F 46.4 °F 100% 30.22 in 10.0 mi Calm Calm - N/A   Clear
7:55 AM 46.4 °F 46.4 °F 100% 30.22 in 10.0 mi Calm Calm - N/A   Clear
9:55 AM 62.6 °F 59.0 °F 88% 30.24 in 10.0 mi WSW 3.5 mph - N/A   Mostly Cloudy
10:15 AM 64.4 °F 57.2 °F 77% 30.24 in 10.0 mi WSW 4.6 mph - N/A   Scattered Clouds
10:35 AM 68.0 °F 57.2 °F 68% 30.23 in 10.0 mi WSW 4.6 mph - N/A   Clear
10:55 AM 69.8 °F 57.2 °F 64% 30.22 in 10.0 mi West 5.8 mph - N/A   Clear
11:15 AM 71.6 °F 55.4 °F 57% 30.21 in 10.0 mi West 8.1 mph - N/A   Clear
11:35 AM 71.6 °F 55.4 °F 57% 30.20 in 10.0 mi West 8.1 mph - N/A   Clear
11:55 AM 73.4 °F 55.4 °F 53% 30.18 in 10.0 mi West 6.9 mph - N/A   Clear
12:15 PM 73.4 °F 53.6 °F 50% 30.17 in 10.0 mi West 4.6 mph - N/A   Clear
12:35 PM 73.4 °F 53.6 °F 50% 30.16 in 10.0 mi WSW 5.8 mph - N/A   Clear
12:55 PM 75.2 °F 53.6 °F 47% 30.15 in 10.0 mi SSW 3.5 mph - N/A   Clear
1:15 PM 75.2 °F 51.8 °F 44% 30.14 in 10.0 mi SW 4.6 mph - N/A   Clear
1:35 PM 75.2 °F 51.8 °F 44% 30.13 in 10.0 mi WSW 5.8 mph - N/A   Clear
2:15 PM 77.0 °F 51.8 °F 41% 30.12 in 10.0 mi WSW 5.8 mph - N/A   Clear
2:35 PM 77.0 °F 53.6 °F 44% 30.11 in 10.0 mi WSW 3.5 mph - N/A   Clear
2:55 PM 75.2 °F 53.6 °F 47% 30.11 in 10.0 mi West 6.9 mph - N/A   Clear
3:15 PM 73.4 °F 53.6 °F 50% 30.11 in 10.0 mi NW 3.5 mph - N/A   Clear
3:35 PM 73.4 °F 53.6 °F 50% 30.11 in 10.0 mi WNW 6.9 mph - N/A   Clear
3:55 PM 73.4 °F 53.6 °F 50% 30.11 in 10.0 mi WNW 3.5 mph - N/A   Clear
4:15 PM 71.6 °F 53.6 °F 53% 30.11 in 10.0 mi Calm Calm - N/A   Clear
4:35 PM 71.6 °F 53.6 °F 53% 30.10 in 10.0 mi Calm Calm - N/A   Clear
4:55 PM 71.6 °F 55.4 °F 57% 30.11 in 10.0 mi Calm Calm - N/A   Clear
5:15 PM 68.0 °F 55.4 °F 64% 30.11 in 10.0 mi Calm Calm - N/A   Clear
5:35 PM 64.4 °F 55.4 °F 73% 30.11 in 10.0 mi Calm Calm - N/A   Clear
5:55 PM 62.6 °F 55.4 °F 77% 30.11 in 10.0 mi Calm Calm - N/A   Clear
6:15 PM 62.6 °F 55.4 °F 77% 30.11 in 10.0 mi Calm Calm - N/A   Clear
6:35 PM 60.8 °F 55.4 °F 82% 30.12 in 10.0 mi Calm Calm - N/A   Clear
6:55 PM 59.0 °F 55.4 °F 88% 30.12 in 10.0 mi Calm Calm - N/A   Clear
7:15 PM 59.0 °F 55.4 °F 88% 30.12 in 10.0 mi Calm Calm - N/A   Clear
7:35 PM 57.2 °F 55.4 °F 94% 30.12 in 7.0 mi Calm Calm - N/A   Clear
7:55 PM 57.2 °F 55.4 °F 94% 30.12 in 10.0 mi Calm Calm - N/A   Clear
8:15 PM 55.4 °F 55.4 °F 100% 30.13 in 10.0 mi Calm Calm - N/A   Clear
8:35 PM 55.4 °F 55.4 °F 100% 30.13 in 10.0 mi Calm Calm - N/A   Clear
8:55 PM 55.4 °F 55.4 °F 100% 30.14 in 10.0 mi Calm Calm - N/A   Clear
9:15 PM 53.6 °F 53.6 °F 100% 30.14 in 10.0 mi Calm Calm - N/A   Clear